Погода в Рубцовске

Хотите узнать прогноз погоды в Рубцовске? Тогда Вам сюда: Погода в Рубцовске

Поиск расширенной информации на нашем сайте:

Полезная информация:

Новости сайта



02.01.2020
Опубликован Долгосрочный прогноз погоды по городам России и ближнего зарубежья на январь 2020 года.
Карты: Прогноз на январь и февраль 2020 года, Сравнение прогнозируемой аномалии приземной температуры воздуха на январь 2020 года по разным моделям.




Погода в Рубцовске - сегодня

Время (UTC), дата Ветер
(°,м/с) 
Видим.   Явления Облачность Т
(°С)
Тd
(°С)
f(%) Тe
(°С)
Pmin
(гПа)
dP
(гПа)
Po
(мм)
O2
(г/м3)
Тmin Tmax R s Состояние
почвы
18 28.11.20 040 (СВ) 10 км    10/10 300 м 
[St]
-11.7 -13 90 -15  1033.2  -0.6  753  318           
21 28.11.20 180 (Ю) 7{11}  20000 м  позёмок{снег}  10/10 600 м 
[Sc]
-1 -4.2 79 -5  1032.2  0.2  753  305           
00 29.11.20 160 (Ю) 5{10}  20000 м  позёмок{снег}  10/10 600 м 
[Sc]
-1.9 -4 86 -5  1034.2  1.8  755  307  -13.7    равномерный
сухой снег
100% 
03 29.11.20 180 (Ю) 5-10{11}  20000 м  позёмок  10/0 средняя 
[Ac und]
-2.8 -6.9 73 -6  1035.4  755  308           
06 29.11.20 170 (Ю) 6-12{12}  20000 м  позёмок  10/4 1000 м верхняя 
[Sc|Ci sp]
-1.2 -5.2 74 -5  1036.8  1.6  757  307           
09 29.11.20 170 (Ю) 6-10{13}  20000 м  позёмок  10/3 1000 м верхняя 
[Sc|Ci fib]
-1.8 -6 73 -6  1037.9  1.1  757  308           
12 29.11.20 150 (ЮВ) 4{12}  20000 м  позёмок  10/0 верхняя 
[Ci fib]
-4.2 -7.6 77 -7  1039.9  1.6  759  311    -1.1       
15 29.11.20 140 (ЮВ) 20000 м    3/0 верхняя 
[Ci sp]
-6 -8.7 81 -9  1042.1  760  314           
18 29.11.20 120 (ЮВ) 20000 м    3/0 верхняя 
[Ci sp]
-6.5 -9.3 80 -8  1042.8  0.7  761  315           
21 29.11.20 тихо ()   20000 м    ясно 
-7.5 -10.1 82 -8  1044.1  1.1  761  316           
00 30.11.20 040 (СВ) 4000 м  дымка  4/4 300 м 
[St]
-17.4 -18.6 90 -20  1046.8  1.5  763  330  -17.4      10  равномерный
сухой снег
100% 
03 30.11.20 тихо ()   0500 м  переохл. туман  ясно 
-15.5 -16.8 90 -16  1047.5  0.9  763  327           
06 30.11.20 тихо ()   4000 м  {туман}  ясно 
-12.2 -13.5 90 -12  1048.6  1.4  764  324           
09 30.11.20 тихо ()   10 км    10/10 300 м 
[St]
-7.4 -8.3 93 -7  1048.1  0.1  764  317           
12 30.11.20 280 (З) 10 км    10/10 300 м 
[St]
-6.6 -8.2 88 -6  1048.9  0.9  765  317    -6.6       
15 30.11.20 360 (С) 20000 м    10/10 300 м 
[St]
-5.7 -6.8 92 -9  1050  1.1  766  316           
18 30.11.20 020 (С) 20000 м  позёмок  10/10 300 м 
[Sc]
-7.1 -7.6 96 -11  1050.3  0.1  766  318           
21 30.11.20 020 (С) 20000 м  позёмок  10/10 300 м 
[Sc]
-7.5 -8.1 95 -12  1050.5  0.2  766  318           
00 01.12.20 040 (СВ) 0500 м  туман  ?/? 30 
-9 -10.1 92 -12  1051  0.2  766  320  -9.2      равномерный
сухой снег
100% 
03 01.12.20 тихо ()   0500 м  переохл. туман  ?/? 30 
-14 -14.6 95 -14  1050.5  -0.6  766  327           
06 01.12.20 030 (СВ) 20000 м  {туман}  ясно 
-10.6 -11.2 95 -14  1051.9  1.4  767  323           
09 01.12.20 010 (С) 20000 м    3/3 600 м 
[Sc]
-8.9 -10.4 89 -13  1051.3  -0.5  766  320           
12 01.12.20 360 (С) 20000 м    ясно 
-12.5 -13.1 95 -17  1051.9  0.3  767  325    -8.9       
15 01.12.20 030 (СВ) 20000 м    ясно 
-14.2 -15.5 90 -14  1052.1  767  327           
18 01.12.20 тихо ()   20000 м    ясно 
-18.5 -20.4 85 -19  1051.9  -0.7  766  333           
Время (UTC), дата Ветер
(°,м/с) 
Видим.   Явления Облачность Т
(°С)
Тd
(°С)
f(%) Тe
(°С)
Pmin
(гПа)
dP
(гПа)
Po
(мм)
O2
(г/м3)
Тmin Tmax R s Состояние
почвы

Для получения пояснительной информации подведите курсор к названию столбца.

ПОГОДА в Рубцовске - архив

Всё, что Вы хотите узнать о погоде в Рубцовске - удобно и подробно!

Выберите нужную дату (начиная с 1 января 2019* года) и нажмите кнопку "Найти".
Будут отображены архивные сводки погоды по пункту Рубцовск, начиная с указанной даты.


Отображать данные в формате CSV (для использования в таблицах Excel)


Внимание! Наш архив погоды предназначен исключительно для личного некоммерческого использования в познавательных целях. Если Вам необходимы официальные справки о состоянии погоды (для производственных, юридических, коммерческих и т.п. целей), обращайтесь в органы Росгидромета.

*Примечание: данная дата относится к архиву по метеостанциям СССР (Россия, СНГ, Балтия).
Архив по метеостанциям Зарубежной Европы и Азии (кроме Китая) хранится 10 дней, по другим регионам земного шара (Китай, Африка, Америка, Австралия, Океания) - 1 день.

Рубцовск - район местоположения метеостанции


Название, широта, долгота, высота метеостанции:
Рубцовск 51.5°ш. 81.2°д. 219 м над ур. моря [Российская Федерация]

Дополнительная информация

В oтличие oт бoльшинства пoгoдных сайтoв мы публикуем пoдрoбную метеoинфoрмацию в детальнoм прoфессиoнальнoм фoрмате.

Характеристики температуры и влажнoсти вoздуха измеряются на высoте 2 м в тени вдали oт зданий и деревьев.
Скoрoсть ветра измеряется на высoте 10 м (на урoвне рoста челoвека скoрoсть ветра ниже в 1.5-2 раза). Если метеoстанция нахoдится в гoрoде или в лесу, тo скoрoсть ветра занижена на 2-4 м/с пo сравнению с oткрытым местoм. Скoрoсть ветра над акватoриями крупных рек и oзёр, а также на вершинах хoлмoв на 2-5 м/с выше, чем в oбычных услoвиях.
Атмoсфернoе давление в разных тoчках местнoсти мoжет значительнo oтличаться oт давления на метеoстанции, в зависимoсти oт услoвий рельефа (при пoдъёме на 10 м давление пoнижается примернo на 1 мм рт.ст.).